Temperature
28 25 25 25 26 27 26 26 26 27 27 26 25 24 24 24 24 23 23 23 22 22 22 22 21 21 21 21 20 20 20 20 19 19 19 19 19 18 18 18 18 18 18 18
26 26 27 28 28 28 27 26 26 26 27 26 25 24 25 24 24 24 23 23 22 22 22 22 21 21 21 20 20 20 20 20 19 19 19 19 18 18 18 18 18 18 18 18
26 27 29 29 28 27 27 26 26 26 26 26 25 24 24 24 24 24 24 23 23 22 22 21 21 21 21 20 20 20 20 19 19 19 19 18 18 18 18 18 18 18 18 18
27 29 29 29 29 28 26 28 28 27 25 23 24 22 23 23 23 23 23 23 22 22 22 21 21 21 21 20 20 20 20 19 19 19 18 18 18 18 18 18 18 18 18 18
27 29 29 29 29 29 28 28 28 27 25 23 23 22 22 22 22 22 23 23 22 22 22 21 21 21 21 20 20 20 20 19 19 19 18 18 18 18 18 18 18 18 18 18
28 29 29 29 29 29 28 27 26 24 22 22 23 22 22 22 22 23 23 23 23 22 22 21 21 21 20 20 20 20 19 19 19 19 18 18 18 18 18 17 17 17 18 18
27 28 29 29 28 28 27 24 23 23 21 22 22 22 22 23 23 23 23 23 23 22 22 21 21 20 20 20 20 20 19 19 19 19 18 18 18 17 17 17 17 17 17 17
25 25 28 29 28 27 27 24 23 23 22 21 22 22 22 24 24 24 24 23 23 22 22 21 21 21 20 20 20 20 19 19 19 19 18 18 18 17 17 17 17 17 17 17
25 25 28 29 29 28 27 25 23 22 22 21 21 22 23 23 23 23 23 23 22 22 21 21 21 21 20 20 20 20 20 19 19 19 18 18 18 17 17 17 17 17 17 17
25 25 26 28 28 28 27 25 22 21 22 21 21 22 21 22 22 22 22 22 22 22 21 21 21 20 20 20 20 19 19 19 19 18 18 18 18 18 17 17 17 17 17 17
24 24 25 26 26 26 26 25 22 20 20 20 21 21 23 22 22 22 22 22 22 22 21 21 21 20 20 20 19 19 19 19 18 18 18 18 18 17 17 17 17 17 17 17
23 21 22 24 25 26 26 25 22 22 21 19 20 21 23 22 22 22 22 22 22 22 21 21 20 20 20 19 19 19 19 18 18 18 18 18 18 17 17 17 17 17 17 16
23 21 21 22 23 24 25 25 23 20 19 19 20 21 22 22 22 22 22 22 22 21 21 21 20 20 19 19 19 18 18 18 18 18 18 18 17 17 17 17 17 17 16 16
23 20 21 22 22 23 24 25 24 21 20 20 21 21 21 21 21 21 22 22 21 21 20 20 20 19 19 19 18 18 18 18 18 18 17 17 17 17 17 17 17 16 16 16
21 21 22 22 23 24 24 24 24 23 21 21 21 21 21 21 21 21 21 21 21 20 20 20 19 19 19 19 18 18 18 18 18 17 17 17 17 17 17 16 16 16 16 16
19 21 21 22 23 24 23 24 24 24 23 22 21 21 21 21 21 21 21 21 20 20 20 20 19 19 19 18 18 18 18 18 17 17 17 17 17 16 16 16 16 16 16 16
19 19 19 20 22 22 22 22 23 23 22 21 20 20 20 20 20 20 20 20 20 20 20 19 19 19 19 18 18 18 18 17 17 17 17 17 16 16 16 16 16 16 16 15
19 18 17 18 20 21 21 22 23 22 21 21 20 20 20 19 20 21 20 19 19 19 19 19 19 19 18 18 18 18 17 17 17 16 16 16 16 16 16 16 15 15 15 15
18 18 17 17 18 20 21 22 22 21 20 20 19 19 19 19 19 19 19 19 19 19 19 19 19 19 18 18 18 17 17 17 16 16 16 16 16 15 15 15 15 15 15 15
17 17 17 17 19 19 20 22 22 20 19 19 19 18 19 18 16 17 19 19 19 19 19 19 18 18 18 18 17 17 17 16 16 16 16 16 15 15 15 15 15 15 15 15
18 17 17 17 18 18 19 21 21 19 18 19 19 19 19 18 17 18 18 18 19 18 18 18 18 18 17 17 17 17 16 16 16 16 16 15 15 15 15 15 14 14 14 14
17 16 16 16 17 18 20 20 19 18 19 19 19 19 19 19 18 18 18 18 18 18 18 18 18 17 17 17 16 16 16 16 16 15 15 15 15 15 15 14 14 14 14 14
16 16 15 16 16 18 20 20 20 20 19 19 19 19 19 18 18 18 17 17 17 17 17 17 17 17 16 16 16 16 16 15 15 15 15 15 15 14 14 14 14 14 14 13
17 16 15 15 17 18 19 20 20 20 20 19 19 19 19 18 17 17 17 17 17 17 17 17 17 16 16 16 15 15 15 15 15 15 15 14 14 14 14 14 14 14 13 13
17 16 15 15 16 17 19 19 19 19 19 19 19 19 18 18 17 17 17 17 17 17 16 16 16 16 16 16 15 15 15 15 15 14 14 14 14 13 13 13 13 13 13 13
16 15 15 15 16 16 17 19 19 19 18 18 18 18 18 18 17 17 17 17 16 16 16 16 16 16 16 15 15 15 15 14 14 14 14 13 13 13 13 13 13 13 13 13
Wind_Speed
2 2 5 8 9 8 6 3 3 4 2 3 5 6 9 10 9 9 9 9 9 9 8 9 9 9 9 7 7 7 6 5 4 3 2 2 2 2 1 2 3 3 2 2
3 5 10 7 5 5 4 3 4 2 2 3 5 5 6 7 10 11 12 12 11 9 7 9 9 9 9 9 8 7 6 5 4 3 3 2 2 2 2 1 2 3 2 2
6 8 5 4 5 5 5 6 5 4 1 3 5 2 2 3 5 7 8 8 9 11 11 10 9 9 9 8 8 8 6 6 5 4 2 1 1 1 0 1 1 2 3 2
6 7 4 3 4 6 6 6 6 5 3 2 4 2 3 3 3 4 6 7 8 9 10 10 10 9 9 8 7 7 6 6 5 5 4 4 3 2 3 2 1 1 2 3
6 4 2 4 6 4 7 6 4 3 3 2 1 3 5 1 2 4 5 8 9 9 11 11 11 10 9 8 7 7 6 5 4 4 5 4 3 3 2 1 1 2 2 2
6 5 3 5 5 3 2 2 4 4 5 1 3 3 4 3 6 6 6 8 10 10 10 10 9 8 7 7 7 6 6 5 5 5 5 5 4 3 2 2 2 2 2 2
6 7 5 2 3 5 3 5 3 4 4 3 3 2 5 5 6 9 10 10 10 10 10 9 9 9 9 9 8 7 7 6 5 5 5 5 5 4 4 3 3 2 2 2
2 7 6 3 4 4 3 8 7 4 4 3 2 3 5 3 2 4 7 9 9 9 9 10 11 11 11 11 9 8 7 6 6 6 5 5 5 4 3 3 3 3 3 3
4 6 5 4 3 4 1 2 7 7 3 1 2 3 5 2 2 2 4 7 8 9 9 9 8 10 10 10 9 9 8 6 6 6 5 4 4 4 3 3 2 2 3 2
5 4 6 4 3 2 4 4 5 5 4 1 2 3 4 4 2 1 3 6 7 7 7 7 7 7 7 8 7 6 6 6 5 5 5 5 5 4 3 3 3 2 3 2
2 3 6 4 1 4 0 2 4 4 5 6 3 5 5 7 6 5 5 5 7 8 7 7 6 6 6 6 6 6 6 5 5 5 5 5 4 4 4 3 3 3 2 2
0 4 3 6 5 3 4 4 5 4 2 4 4 6 4 5 5 6 5 5 5 7 7 6 6 5 5 4 5 5 5 5 5 5 5 5 4 4 4 3 3 3 2 1
2 5 1 7 7 6 3 2 3 5 4 4 4 5 2 3 3 4 5 5 5 6 6 5 5 5 4 4 4 4 4 4 4 5 5 5 4 4 4 3 2 2 2 2
3 4 5 6 6 3 2 3 2 5 4 4 5 5 3 4 5 4 5 6 6 6 6 6 5 4 4 4 4 4 4 4 4 4 5 5 5 5 4 3 2 2 2 2
5 3 2 3 3 1 1 1 0 2 5 6 5 6 7 7 8 7 6 6 7 6 6 5 5 4 4 4 3 3 3 3 4 4 4 5 4 3 3 3 2 2 2 2
4 3 1 3 2 4 3 3 0 2 3 4 5 2 4 4 4 5 6 7 6 6 6 5 5 4 4 4 4 3 3 3 3 3 3 3 3 3 3 3 3 2 2 2
2 3 2 2 4 4 3 3 1 3 3 5 3 4 2 2 5 6 6 7 7 6 5 5 5 4 4 4 4 4 3 3 3 2 2 3 3 3 2 2 2 3 3 2
4 2 3 1 3 2 7 3 3 5 4 3 3 3 4 4 4 4 5 6 5 4 4 4 4 4 3 3 3 3 3 3 3 2 2 2 3 3 2 1 1 2 2 2
6 6 3 3 2 3 4 3 1 3 2 2 5 4 4 4 5 3 0 3 5 5 4 3 4 4 3 3 3 3 3 3 3 2 2 2 2 3 2 2 2 2 1 2
5 5 5 3 3 5 5 4 1 5 1 1 4 5 5 5 2 3 2 1 3 3 3 3 3 4 3 2 3 4 3 3 3 3 3 2 2 3 3 3 2 2 1 2
4 3 2 3 3 5 4 3 4 3 5 2 3 4 3 3 5 4 2 0 2 3 3 3 4 4 3 2 3 3 2 3 4 3 2 1 2 3 3 2 2 1 1 1
2 2 2 3 2 6 4 3 3 5 3 3 3 3 4 4 4 2 1 2 2 3 3 4 4 3 1 2 3 3 2 2 2 2 1 1 1 2 2 2 2 1 1 1
2 5 5 5 6 6 2 4 3 4 4 3 3 3 5 5 4 3 2 2 2 2 3 3 5 3 1 2 3 3 2 2 2 2 1 1 1 1 1 2 2 1 1 1
3 0 2 1 3 2 1 2 3 4 4 3 4 5 5 4 4 3 2 1 1 2 2 3 3 3 2 1 1 2 2 3 3 2 1 0 0 1 2 1 2 2 2 2
4 1 0 2 3 1 1 2 4 4 4 4 3 4 4 4 4 3 2 2 2 2 2 3 3 3 3 2 2 2 2 3 3 2 1 1 0 1 1 1 1 2 3 4
3 4 4 6 7 4 4 4 4 5 4 4 3 2 2 3 4 3 3 3 3 2 2 2 2 2 2 2 2 2 2 3 4 2 2 1 1 1 1 1 2 2 2 3
Wind_Direction
279 118 223 221 210 201 182 188 242 255 215 124 153 165 174 174 170 169 168 170 170 174 169 158 156 155 152 153 154 158 155 165 155 143 144 150 172 176 172 198 200 189 200 201
354 254 233 218 215 190 191 210 243 253 194 136 146 161 180 179 185 179 177 181 177 172 164 164 161 160 162 166 168 166 169 172 171 170 169 170 165 172 182 208 208 194 199 217
225 247 237 212 213 204 230 204 220 209 28 84 118 51 205 185 180 180 183 177 170 173 170 169 168 167 167 171 172 171 173 173 174 166 146 133 87 58 83 257 264 238 211 223
247 246 234 242 236 203 240 228 209 192 141 222 157 169 262 204 175 180 182 175 169 171 169 167 168 169 172 176 172 165 168 168 169 162 159 162 168 190 217 217 224 244 221 224
258 254 222 248 251 220 221 221 200 180 135 96 32 134 276 203 195 213 195 178 175 172 173 177 177 176 172 167 166 167 166 169 170 169 170 167 183 198 209 203 219 249 260 240
261 263 223 230 262 235 198 48 29 51 77 61 257 155 258 223 213 210 201 186 181 175 172 176 175 166 165 166 166 167 170 181 180 175 176 172 177 176 174 203 219 252 262 264
308 299 284 267 324 326 67 82 29 358 17 254 261 147 244 236 216 203 194 187 180 172 168 168 167 166 169 172 175 175 175 185 186 183 186 184 184 180 189 201 208 220 245 258
241 284 275 258 202 227 234 143 160 198 211 253 312 220 252 229 219 196 181 170 162 163 169 171 175 175 177 178 179 179 183 190 187 184 191 189 185 186 195 199 204 214 224 235
194 253 277 273 240 166 189 202 173 149 153 127 286 285 304 327 57 84 142 147 156 161 164 170 173 175 177 178 182 184 186 188 188 187 186 186 187 188 193 197 201 220 233 237
178 240 280 292 0 322 169 161 86 107 142 182 266 251 244 260 240 159 142 146 156 158 156 158 158 160 171 175 177 177 178 188 192 188 188 189 192 191 192 188 204 218 231 235
132 178 290 333 220 228 28 58 106 113 143 156 210 258 225 216 199 169 165 162 163 161 161 155 150 156 163 167 171 174 178 181 188 191 192 192 194 197 195 202 215 221 223 221
136 144 250 264 261 200 154 171 142 149 222 162 165 251 249 185 178 162 161 155 159 154 152 149 148 147 148 153 166 177 180 182 192 189 185 190 189 188 198 212 225 220 216 213
90 103 39 334 339 2 39 47 117 129 126 149 168 248 257 156 158 162 151 144 139 131 127 136 141 150 161 164 166 174 179 182 187 180 177 183 187 186 195 205 214 209 203 217
101 100 152 201 235 258 305 346 54 115 145 184 196 205 233 178 173 167 149 139 132 133 133 137 146 163 173 173 172 176 184 187 181 176 175 185 195 196 196 196 196 193 194 196
84 113 175 221 242 125 47 325 18 123 174 172 193 191 212 197 181 168 153 140 128 126 132 140 156 174 179 171 172 178 187 192 183 177 181 194 200 194 186 188 194 202 208 213
61 122 71 339 353 39 11 335 332 108 110 130 134 196 248 210 154 145 146 143 144 153 157 153 163 168 171 171 176 177 185 187 167 165 179 178 174 181 185 197 200 203 216 225
51 104 94 270 307 29 333 294 133 116 123 135 168 207 177 136 144 156 157 151 158 169 166 162 167 172 175 178 173 176 183 171 154 155 170 166 163 167 178 199 203 213 219 227
141 113 139 165 48 225 241 266 95 100 83 89 121 152 151 160 174 156 141 150 158 163 162 162 154 158 168 162 156 161 155 156 159 160 159 167 169 172 175 166 213 229 225 230
148 141 126 130 180 261 296 328 44 109 37 66 110 114 113 104 73 38 40 155 167 174 164 158 153 147 141 148 150 131 140 143 149 164 180 184 181 183 188 201 228 229 236 252
71 106 127 141 159 221 248 291 4 92 38 350 107 109 109 98 102 258 260 194 154 149 143 135 125 106 108 135 131 123 142 150 174 195 204 201 188 187 195 206 220 230 223 255
17 35 128 169 196 244 271 316 58 117 228 238 136 139 136 167 196 218 225 155 147 129 130 123 118 123 136 124 116 124 145 184 199 195 188 200 216 204 197 203 214 215 215 264
166 139 169 142 182 245 296 60 141 208 191 152 145 135 127 128 128 113 103 128 126 112 110 113 110 109 129 135 128 138 189 211 178 157 162 220 257 232 203 193 224 220 196 234
179 185 184 184 213 238 234 157 183 159 149 166 153 122 122 127 130 122 122 144 136 129 131 133 133 134 144 141 145 165 203 174 146 134 166 246 305 305 237 204 218 233 221 215
290 93 135 201 253 251 212 131 128 150 162 163 147 131 122 139 149 149 157 161 160 157 145 143 142 146 159 170 163 190 193 162 145 154 196 218 301 338 327 264 220 213 217 215
247 278 137 233 244 354 350 174 149 124 123 121 130 130 139 146 149 163 182 186 179 163 165 159 160 173 186 195 211 219 191 165 163 174 187 218 247 282 309 295 257 232 226 208
242 198 190 227 223 189 229 218 156 135 142 142 121 97 127 150 157 163 182 192 179 169 160 158 164 173 187 195 221 236 200 170 166 180 199 202 207 246 267 280 327 323 270 252
Height
1493 1500 1505 1501 1497 1499 1502 1507 1509 1504 1496 1502 1506 1508 1508 1509 1510 1512 1513 1514 1515 1516 1518 1519 1520 1522 1523 1524 1525 1526 1527 1528 1529 1529 1530 1530 1531 1532 1532 1533 1533 1533 1533 1533
1499 1501 1491 1489 1490 1493 1498 1507 1507 1502 1497 1502 1508 1509 1507 1508 1509 1510 1511 1512 1513 1515 1517 1518 1519 1520 1521 1522 1523 1524 1525 1527 1528 1529 1529 1530 1530 1531 1531 1531 1531 1532 1532 1532
1499 1492 1484 1487 1491 1496 1499 1504 1504 1504 1500 1501 1508 1516 1511 1509 1509 1510 1511 1511 1512 1513 1515 1516 1518 1519 1520 1521 1522 1523 1524 1525 1526 1528 1528 1529 1529 1529 1530 1530 1530 1530 1530 1530
1492 1484 1484 1487 1490 1492 1502 1491 1493 1496 1508 1519 1514 1533 1518 1511 1510 1509 1509 1510 1510 1511 1513 1514 1515 1517 1518 1519 1521 1522 1523 1524 1525 1526 1527 1527 1527 1527 1527 1528 1528 1529 1529 1529
1491 1483 1484 1488 1486 1485 1490 1484 1488 1494 1507 1518 1517 1529 1524 1511 1512 1509 1507 1507 1507 1508 1510 1512 1513 1514 1516 1518 1519 1520 1521 1522 1523 1524 1525 1525 1525 1526 1526 1527 1527 1527 1527 1527
1483 1479 1479 1480 1478 1479 1481 1487 1493 1502 1514 1532 1523 1528 1528 1515 1508 1505 1505 1505 1505 1507 1508 1510 1512 1513 1514 1516 1517 1518 1519 1520 1521 1522 1522 1523 1523 1524 1525 1525 1525 1525 1525 1525
1491 1482 1476 1475 1481 1481 1485 1505 1526 1530 1539 1538 1521 1524 1522 1504 1500 1499 1500 1501 1502 1504 1506 1508 1509 1511 1512 1513 1515 1515 1516 1517 1519 1519 1520 1520 1521 1522 1522 1523 1523 1523 1523 1522
1503 1501 1481 1475 1480 1486 1487 1500 1526 1538 1543 1537 1524 1527 1513 1498 1497 1496 1496 1498 1500 1503 1504 1505 1506 1508 1509 1511 1512 1513 1514 1515 1516 1517 1517 1518 1519 1520 1520 1520 1520 1521 1521 1520
1501 1498 1476 1472 1472 1476 1487 1495 1497 1517 1526 1538 1532 1519 1506 1497 1496 1497 1497 1498 1499 1501 1503 1504 1505 1506 1508 1509 1510 1511 1512 1513 1513 1514 1515 1516 1517 1517 1517 1518 1518 1518 1518 1518
1486 1495 1482 1474 1472 1474 1478 1485 1502 1518 1534 1542 1534 1526 1521 1505 1500 1498 1498 1499 1500 1500 1502 1503 1504 1505 1506 1507 1508 1510 1510 1511 1511 1512 1513 1514 1514 1515 1515 1515 1515 1515 1515 1515
1482 1494 1490 1482 1484 1485 1484 1489 1500 1514 1520 1537 1543 1530 1501 1499 1497 1497 1497 1498 1498 1499 1500 1501 1503 1504 1505 1506 1507 1507 1508 1509 1509 1510 1510 1511 1512 1512 1512 1513 1513 1513 1512 1512
1481 1493 1501 1490 1477 1474 1478 1486 1497 1514 1520 1524 1531 1525 1492 1492 1493 1494 1495 1497 1498 1498 1500 1501 1502 1503 1503 1504 1505 1506 1506 1507 1507 1507 1508 1508 1509 1509 1510 1510 1510 1510 1510 1509
1480 1495 1510 1505 1496 1483 1483 1483 1489 1500 1512 1523 1528 1519 1492 1492 1492 1493 1494 1496 1497 1498 1499 1500 1501 1502 1502 1502 1503 1504 1504 1505 1505 1505 1506 1506 1506 1506 1506 1507 1507 1507 1507 1506
1476 1494 1505 1513 1506 1494 1490 1486 1486 1497 1513 1517 1513 1508 1498 1494 1493 1493 1493 1494 1496 1497 1498 1499 1500 1500 1501 1501 1502 1502 1502 1503 1503 1503 1503 1503 1503 1503 1504 1504 1504 1504 1504 1504
1478 1493 1492 1492 1487 1486 1487 1486 1485 1490 1496 1505 1504 1501 1496 1492 1491 1491 1492 1494 1495 1497 1498 1498 1499 1499 1499 1500 1500 1500 1501 1500 1500 1500 1500 1501 1501 1501 1501 1501 1501 1502 1501 1501
1481 1491 1491 1492 1485 1485 1488 1485 1484 1485 1488 1493 1495 1498 1490 1489 1490 1491 1492 1493 1494 1496 1496 1496 1497 1497 1497 1497 1498 1498 1498 1498 1498 1498 1498 1498 1499 1499 1499 1499 1499 1499 1498 1498
1487 1492 1500 1503 1491 1489 1499 1489 1485 1486 1487 1490 1496 1494 1488 1489 1489 1490 1491 1492 1492 1494 1494 1494 1495 1495 1495 1496 1496 1496 1496 1496 1496 1496 1496 1496 1496 1496 1496 1496 1496 1496 1495 1495
1486 1493 1503 1505 1501 1510 1497 1482 1480 1484 1486 1485 1487 1487 1487 1487 1487 1488 1489 1490 1492 1493 1493 1493 1492 1493 1494 1494 1495 1494 1495 1494 1494 1494 1494 1494 1494 1493 1494 1493 1493 1493 1492 1492
1478 1489 1501 1509 1510 1504 1491 1482 1482 1486 1491 1487 1486 1486 1485 1486 1487 1489 1490 1490 1490 1491 1491 1491 1491 1491 1492 1492 1492 1492 1492 1492 1492 1492 1492 1491 1491 1491 1491 1491 1490 1490 1489 1489
1479 1484 1497 1505 1508 1510 1495 1481 1478 1483 1495 1488 1485 1485 1485 1486 1494 1493 1490 1490 1490 1490 1489 1489 1490 1490 1490 1490 1491 1491 1490 1490 1490 1490 1490 1490 1489 1489 1489 1488 1488 1487 1487 1486
1490 1493 1498 1503 1505 1498 1486 1479 1479 1496 1497 1487 1486 1485 1486 1487 1489 1490 1488 1488 1488 1488 1488 1489 1488 1488 1488 1489 1489 1489 1489 1488 1488 1489 1489 1488 1488 1487 1487 1486 1485 1485 1484 1483
1494 1498 1500 1502 1506 1501 1481 1480 1486 1488 1484 1485 1485 1485 1484 1485 1486 1487 1487 1486 1486 1486 1486 1487 1486 1487 1488 1488 1487 1487 1487 1487 1487 1487 1487 1487 1486 1485 1484 1483 1483 1482 1481 1480
1488 1490 1492 1493 1494 1483 1479 1479 1481 1482 1483 1484 1484 1484 1483 1483 1484 1485 1486 1485 1485 1485 1485 1485 1486 1486 1486 1486 1486 1485 1485 1485 1485 1485 1485 1484 1484 1483 1482 1481 1480 1479 1478 1477
1484 1481 1484 1487 1482 1479 1478 1478 1479 1480 1481 1482 1482 1482 1483 1483 1483 1484 1484 1485 1484 1484 1484 1484 1484 1484 1484 1484 1484 1484 1484 1484 1483 1483 1483 1482 1482 1480 1479 1478 1477 1476 1475 1475
1482 1482 1483 1484 1480 1478 1477 1477 1477 1478 1480 1480 1481 1480 1482 1482 1482 1483 1483 1483 1483 1483 1483 1483 1483 1482 1482 1481 1481 1482 1482 1482 1481 1481 1480 1480 1479 1478 1476 1475 1474 1474 1474 1474
1478 1479 1482 1481 1476 1476 1476 1476 1476 1476 1477 1478 1479 1479 1480 1480 1480 1481 1481 1481 1481 1481 1481 1481 1481 1481 1480 1480 1479 1480 1479 1479 1479 1479 1478 1477 1476 1475 1474 1473 1472 1471 1471 1471